Wind_Speed
11 11 12 12 13 14 15 15 14 14 15 15 15 15 16 16 16 17 19 10 5 4 6 0 2 3 4 3 3 1 3 2 6 8 8 8 4 13 8 23 8 9 13 25 34
13 13 14 14 14 15 15 15 15 15 15 15 15 16 16 17 18 17 13 12 10 7 6 6 3 11 4 4 3 4 3 1 3 7 8 9 7 20 8 17 2 8 10 39 37
14 15 15 16 15 15 16 16 16 16 16 16 15 16 15 16 16 2 2 8 12 12 7 5 6 6 5 3 4 1 1 3 2 6 14 10 3 7 21 6 11 31 37 42 40
16 16 16 17 17 17 17 16 16 16 16 16 15 15 14 12 4 2 5 1 13 13 7 9 6 3 4 5 2 2 9 8 7 5 6 7 10 1 10 8 20 28 44 45 43
18 17 17 18 18 18 18 17 17 17 16 16 15 15 13 7 17 10 12 5 10 13 11 11 6 5 3 4 3 3 4 15 13 18 16 14 15 5 9 11 21 34 43 43 42
18 19 19 19 19 19 18 18 17 17 17 16 15 14 11 6 8 5 3 6 9 13 14 11 4 6 9 3 3 8 15 14 16 25 12 7 2 15 10 23 31 37 37 37 39
20 19 19 20 21 21 20 19 18 17 17 16 14 14 15 24 7 8 0 5 9 11 14 12 6 6 7 5 10 9 8 11 11 8 2 14 2 2 22 27 33 32 34 34 33
21 20 20 20 21 22 21 19 19 18 17 15 13 12 15 18 16 24 15 15 15 12 14 9 9 4 6 3 2 1 2 5 5 8 3 5 6 5 27 30 26 29 31 33 37
21 21 21 21 22 23 21 19 20 18 16 13 11 9 14 9 15 17 20 18 12 13 14 10 11 4 6 3 3 4 3 4 6 1 2 2 1 10 26 23 24 27 29 34 39
21 21 21 21 22 23 20 19 18 15 11 8 10 5 18 6 4 4 17 19 14 12 15 11 6 4 3 1 4 6 3 2 3 3 5 2 4 11 20 21 22 26 29 32 39
22 21 21 20 21 23 21 12 6 2 5 9 7 12 12 3 8 9 5 14 17 9 7 12 5 10 16 16 18 16 3 3 3 3 3 2 4 11 17 17 16 22 26 33 38
23 23 21 19 20 20 19 9 5 6 12 18 22 29 30 24 11 16 9 7 7 7 7 4 8 15 12 21 19 14 11 6 4 5 5 4 5 10 16 24 28 28 29 35 40
22 23 23 19 19 19 14 5 4 18 6 13 24 27 30 18 16 27 10 9 5 7 6 7 5 5 9 8 6 2 8 5 5 2 3 2 6 5 9 25 29 33 37 33 41
21 22 23 20 14 8 8 2 12 13 2 7 6 11 18 15 7 24 20 9 4 11 7 5 5 6 5 6 7 4 6 3 4 5 1 5 5 6 5 15 20 31 33 41 41
23 21 21 19 16 15 7 11 11 7 3 3 4 1 15 18 6 12 21 12 8 5 7 6 6 11 5 5 7 6 3 4 4 5 3 1 2 7 4 7 15 24 38 41 43
24 23 22 19 20 12 7 6 6 5 7 6 5 4 7 8 6 6 10 14 17 6 3 6 1 3 8 3 1 5 3 2 4 3 3 4 5 7 3 6 8 24 37 39 39
26 22 22 21 16 5 5 3 4 3 6 5 1 5 4 5 6 5 6 6 7 5 3 3 2 3 1 4 4 4 5 3 5 3 5 3 4 9 10 8 10 19 35 39 41
27 21 19 21 13 12 4 4 4 3 6 6 5 2 8 5 5 6 6 4 3 5 4 6 3 8 5 5 6 1 4 5 6 5 3 3 4 6 4 20 19 26 31 26 28
26 20 16 13 13 13 6 3 8 6 4 8 8 6 6 1 5 4 8 7 9 9 9 6 6 1 7 5 8 3 3 1 6 5 3 3 7 8 5 5 5 15 21 24 28
26 17 6 7 13 19 4 5 5 5 5 5 5 4 5 5 2 7 8 6 7 11 6 8 3 5 4 7 5 7 6 2 2 5 4 4 5 5 5 3 7 9 19 22 21
14 7 10 11 22 15 4 7 5 11 5 5 3 4 3 4 4 5 9 6 8 7 10 6 5 4 5 5 9 3 5 3 1 3 5 2 6 8 7 7 7 7 18 29 26
7 3 5 28 4 2 3 6 1 2 2 3 3 9 7 4 5 5 9 7 13 9 10 10 7 5 6 3 4 3 5 6 5 6 3 1 7 4 10 8 16 22 22 23 28
10 5 11 1 3 2 6 4 5 5 9 4 4 4 1 3 3 8 5 5 4 6 10 7 3 4 4 5 3 4 5 5 4 3 7 6 9 1 6 7 15 20 24 29 29
7 3 3 8 4 3 4 5 3 7 7 7 7 6 3 6 8 6 3 3 6 4 13 18 6 11 12 8 6 6 7 8 7 5 6 9 12 10 7 11 9 24 26 20 25
9 2 4 3 2 4 2 3 4 6 5 6 3 8 8 4 4 6 4 5 3 5 6 8 9 7 10 9 6 7 10 17 10 6 12 10 8 9 8 9 17 24 27 25 28
8 6 9 6 9 4 2 1 2 4 3 6 5 9 7 9 11 8 5 3 4 5 4 5 4 4 5 8 10 6 8 12 15 13 5 8 7 4 7 15 22 34 30 28 35
13 6 4 5 4 2 2 4 7 10 10 15 9 7 3 5 15 25 11 9 4 2 3 3 3 4 4 7 7 4 8 9 7 8 7 6 13 6 9 17 28 31 45 47 42
Wind_Direction
322 321 320 319 317 317 317 319 321 321 319 319 321 319 320 320 312 300 280 261 251 175 176 138 316 175 157 119 121 114 50 0 358 7 306 8 103 151 155 147 157 169 181 169 163
317 317 317 315 313 312 311 313 315 315 314 313 316 318 321 323 316 293 285 250 231 216 167 193 145 170 117 19 63 77 128 242 28 314 332 315 190 166 135 163 89 142 158 157 162
315 313 312 311 310 306 307 309 310 310 308 309 314 316 321 325 321 313 323 212 200 196 185 187 163 198 102 41 30 85 159 284 196 335 334 324 47 310 139 215 186 150 149 160 167
312 312 311 309 307 305 304 306 306 305 303 304 310 312 317 318 289 166 31 34 192 187 192 182 201 85 135 107 267 13 236 250 280 270 305 309 309 337 170 200 201 183 165 166 172
310 311 309 307 304 302 302 302 301 300 298 301 304 307 314 292 263 274 285 258 192 187 186 198 201 127 111 120 174 216 339 309 290 308 314 273 254 246 240 164 163 163 166 169 179
309 309 309 306 302 300 299 299 297 295 293 296 297 299 298 262 278 242 258 216 213 191 183 190 194 105 103 75 91 308 311 288 310 310 297 279 271 166 163 154 156 160 167 173 185
308 307 306 304 303 300 298 296 295 291 287 289 291 291 276 253 238 161 119 239 252 205 196 196 182 76 44 54 351 320 320 0 328 327 280 109 17 176 159 159 157 168 173 178 184
308 307 305 303 301 299 298 298 294 289 283 282 283 281 260 271 251 248 261 238 227 252 222 181 177 95 101 135 161 331 23 2 304 319 23 84 232 129 163 158 167 175 180 189 194
308 307 306 303 301 298 298 302 294 286 277 273 269 250 266 246 243 241 234 233 231 219 206 179 158 98 17 52 31 224 209 195 303 220 59 62 192 159 173 172 173 182 187 193 200
307 306 305 304 303 299 302 307 300 284 257 242 234 271 253 236 169 275 225 222 224 200 203 154 147 84 113 3 246 249 251 247 246 345 37 33 30 159 180 182 188 191 194 200 205
308 304 303 305 304 303 307 328 322 322 235 221 240 223 275 278 265 249 204 218 213 190 153 163 136 180 178 203 237 240 237 216 262 219 155 175 144 172 181 195 208 206 207 208 214
310 306 302 302 303 301 303 314 72 4 295 259 250 256 255 257 294 256 228 188 179 190 130 111 202 209 177 219 225 221 211 252 298 259 179 210 232 196 186 202 202 207 212 213 217
311 307 302 301 300 298 293 293 278 317 237 271 246 244 246 240 231 254 207 200 166 181 171 170 208 213 153 176 165 255 179 200 212 278 55 50 299 208 214 207 206 212 215 218 216
312 307 304 303 301 286 303 172 319 305 349 269 220 244 209 193 251 233 224 195 183 197 134 213 210 189 144 160 158 204 211 181 73 67 93 86 280 276 214 203 201 208 210 219 219
314 306 300 299 285 286 285 306 312 156 319 219 204 249 183 169 167 209 213 193 176 158 123 231 173 160 158 190 155 201 185 161 134 117 148 173 111 270 134 202 223 216 213 215 220
313 308 296 291 280 291 272 300 151 44 253 314 152 139 136 194 179 170 164 192 204 130 34 174 280 189 192 100 208 135 124 329 73 93 27 207 157 286 193 210 246 214 220 214 215
314 305 289 278 268 268 311 323 54 166 326 318 336 151 210 190 199 164 137 143 161 125 151 18 228 296 147 98 350 101 77 5 28 22 231 24 107 248 275 243 230 215 211 212 211
318 303 281 268 261 254 279 61 178 251 258 300 321 258 157 146 234 167 118 188 247 129 132 157 248 190 179 182 178 69 129 151 181 170 258 74 237 251 269 287 262 218 204 207 210
323 309 284 261 228 209 178 118 203 214 304 345 327 49 357 47 169 141 191 199 195 171 174 155 243 96 169 151 135 229 214 164 100 17 95 267 287 298 305 32 49 137 172 189 207
330 318 300 241 188 173 98 232 226 217 343 359 27 43 348 344 338 170 176 205 212 184 172 211 180 214 152 105 51 168 152 111 353 143 228 274 282 242 235 126 100 97 126 144 173
338 343 343 149 153 158 168 226 251 282 2 5 357 322 302 293 216 196 207 255 197 206 177 146 132 254 116 188 163 119 121 74 190 151 166 191 257 212 234 162 145 130 143 146 152
359 34 79 137 84 124 173 197 253 301 18 316 236 219 212 263 297 263 203 213 202 162 170 199 158 182 207 32 72 110 157 131 138 241 235 248 257 246 227 206 168 170 161 155 147
356 1 158 310 99 316 309 289 221 251 264 245 272 213 173 256 330 213 196 212 277 178 185 175 197 91 10 358 87 178 201 176 131 109 204 171 259 5 9 318 189 143 152 152 141
7 20 93 229 290 69 6 275 246 273 248 212 230 236 270 271 197 277 227 265 333 217 247 173 146 183 204 199 153 176 188 190 148 152 200 222 245 255 268 270 154 151 150 130 122
11 23 12 327 336 353 269 293 323 357 308 257 282 219 195 261 233 225 236 318 311 332 31 149 178 169 215 179 176 182 176 188 200 194 205 217 214 259 256 161 148 133 129 127 126
14 4 347 297 298 315 358 6 317 331 266 280 223 266 202 211 205 237 171 203 225 331 53 335 208 134 163 187 181 196 221 179 201 205 201 222 237 188 126 138 149 142 138 134 134
357 333 307 291 334 348 161 349 327 321 273 251 295 288 241 213 269 251 222 175 158 179 326 82 113 131 196 111 97 321 215 192 205 223 184 196 229 161 153 165 167 157 155 157 152
Height
1514 1513 1512 1511 1509 1507 1506 1504 1502 1501 1499 1496 1495 1493 1491 1489 1487 1485 1482 1484 1486 1487 1487 1487 1486 1487 1488 1491 1492 1491 1501 1504 1493 1492 1489 1482 1479 1482 1484 1484 1488 1490 1490 1494 1502
1512 1511 1510 1509 1507 1505 1504 1502 1500 1499 1497 1495 1493 1491 1489 1487 1483 1480 1479 1479 1483 1485 1485 1485 1485 1486 1487 1488 1489 1492 1500 1494 1490 1491 1489 1484 1485 1479 1484 1489 1489 1490 1491 1497 1503
1510 1509 1508 1506 1505 1503 1501 1500 1498 1496 1494 1493 1491 1489 1488 1485 1482 1477 1476 1477 1480 1482 1483 1484 1484 1485 1486 1487 1490 1490 1494 1491 1487 1487 1486 1483 1482 1485 1480 1489 1486 1485 1492 1497 1503
1508 1507 1505 1503 1502 1500 1498 1497 1495 1494 1492 1490 1489 1487 1485 1485 1487 1476 1476 1476 1478 1480 1482 1482 1482 1484 1488 1488 1490 1491 1487 1486 1481 1482 1485 1482 1481 1482 1479 1477 1480 1483 1486 1493 1500
1506 1505 1503 1501 1499 1497 1495 1494 1492 1491 1489 1487 1486 1485 1484 1483 1475 1476 1475 1476 1477 1479 1480 1481 1480 1482 1484 1489 1487 1488 1485 1484 1480 1478 1478 1478 1476 1484 1482 1478 1482 1488 1493 1496 1501
1504 1502 1500 1498 1495 1493 1492 1490 1489 1487 1486 1485 1484 1483 1482 1481 1472 1473 1474 1475 1476 1478 1479 1480 1479 1481 1486 1487 1486 1484 1485 1480 1473 1471 1473 1475 1473 1478 1483 1481 1485 1489 1494 1499 1502
1501 1498 1496 1494 1491 1489 1487 1486 1485 1483 1482 1482 1481 1480 1478 1468 1470 1470 1472 1475 1476 1477 1478 1481 1480 1483 1483 1487 1488 1487 1484 1473 1470 1471 1472 1470 1479 1479 1482 1484 1487 1492 1496 1500 1503
1497 1495 1493 1490 1488 1485 1483 1482 1480 1479 1478 1478 1478 1477 1470 1465 1467 1466 1470 1472 1474 1477 1480 1484 1484 1484 1490 1496 1492 1496 1496 1500 1476 1474 1473 1474 1489 1480 1484 1485 1491 1493 1496 1500 1503
1494 1492 1489 1487 1484 1481 1479 1478 1476 1474 1474 1474 1475 1475 1465 1461 1460 1462 1465 1467 1471 1475 1480 1484 1488 1488 1487 1495 1499 1499 1503 1505 1489 1476 1474 1478 1485 1482 1485 1489 1491 1493 1495 1498 1501
1491 1488 1486 1483 1480 1476 1475 1474 1471 1470 1469 1471 1472 1476 1460 1457 1458 1458 1460 1464 1468 1473 1480 1486 1488 1492 1500 1502 1515 1497 1496 1492 1492 1478 1477 1480 1482 1483 1486 1489 1491 1493 1494 1497 1498
1487 1484 1481 1480 1477 1474 1472 1471 1472 1470 1467 1462 1461 1457 1453 1456 1455 1456 1458 1461 1464 1468 1477 1478 1491 1497 1494 1493 1484 1485 1491 1490 1483 1475 1479 1483 1480 1481 1485 1489 1492 1494 1494 1494 1494
1483 1480 1477 1476 1473 1471 1471 1471 1472 1475 1465 1454 1453 1451 1452 1455 1456 1451 1455 1459 1461 1468 1469 1481 1486 1474 1483 1484 1489 1485 1489 1491 1483 1476 1478 1479 1480 1476 1477 1478 1482 1485 1489 1488 1491
1480 1477 1474 1472 1469 1469 1468 1471 1471 1470 1467 1446 1443 1442 1443 1450 1450 1446 1451 1453 1457 1464 1468 1479 1471 1466 1476 1484 1490 1490 1491 1491 1486 1476 1473 1479 1484 1475 1470 1472 1476 1478 1480 1486 1484
1475 1473 1470 1468 1469 1465 1466 1468 1468 1466 1472 1446 1435 1430 1436 1444 1444 1442 1446 1450 1454 1461 1465 1470 1464 1465 1473 1481 1486 1499 1479 1479 1482 1485 1501 1482 1519 1481 1467 1466 1468 1470 1473 1473 1478
1472 1469 1466 1466 1464 1464 1467 1466 1465 1465 1494 1431 1428 1426 1427 1433 1435 1436 1441 1446 1451 1455 1461 1469 1465 1465 1472 1468 1470 1483 1472 1474 1478 1490 1496 1493 1507 1482 1461 1469 1464 1462 1459 1463 1469
1467 1465 1462 1462 1460 1462 1462 1463 1464 1479 1487 1434 1425 1427 1430 1430 1431 1432 1436 1442 1444 1451 1456 1460 1463 1462 1459 1462 1464 1468 1475 1480 1483 1495 1513 1490 1493 1484 1471 1462 1453 1449 1454 1456 1463
1462 1459 1457 1455 1456 1459 1459 1461 1478 1489 1442 1436 1430 1426 1431 1432 1432 1431 1436 1443 1452 1469 1470 1464 1464 1460 1459 1467 1466 1468 1485 1516 1513 1517 1512 1496 1497 1476 1451 1447 1444 1439 1442 1448 1453
1455 1452 1450 1449 1453 1457 1459 1463 1481 1457 1452 1431 1428 1426 1431 1430 1430 1431 1439 1448 1442 1447 1470 1479 1483 1465 1456 1459 1468 1473 1481 1503 1523 1519 1509 1492 1503 1469 1444 1438 1432 1432 1436 1449 1454
1447 1443 1442 1445 1447 1453 1459 1476 1468 1458 1442 1439 1431 1435 1437 1428 1430 1432 1439 1444 1439 1441 1461 1476 1470 1449 1450 1451 1457 1477 1486 1480 1509 1515 1512 1502 1482 1456 1444 1439 1433 1430 1437 1442 1449
1442 1438 1437 1438 1443 1450 1459 1466 1455 1445 1441 1440 1446 1440 1448 1436 1437 1437 1440 1428 1432 1431 1433 1448 1468 1452 1450 1451 1457 1462 1467 1496 1503 1521 1519 1506 1499 1481 1448 1440 1436 1435 1437 1442 1445
1440 1437 1437 1436 1442 1449 1462 1462 1450 1441 1442 1444 1445 1445 1442 1441 1436 1438 1433 1423 1420 1425 1428 1440 1452 1461 1451 1457 1465 1471 1479 1486 1495 1496 1509 1510 1494 1450 1444 1437 1439 1440 1441 1440 1443
1440 1441 1441 1442 1446 1450 1455 1449 1445 1442 1441 1442 1440 1440 1441 1437 1437 1434 1428 1419 1411 1414 1432 1431 1447 1470 1459 1452 1450 1455 1465 1476 1505 1499 1499 1492 1480 1433 1433 1434 1436 1442 1444 1447 1443
1445 1444 1445 1445 1452 1454 1448 1444 1442 1442 1441 1441 1438 1433 1431 1435 1445 1427 1419 1410 1411 1413 1421 1425 1450 1478 1468 1462 1458 1460 1460 1463 1470 1478 1491 1493 1468 1431 1433 1433 1436 1439 1442 1441 1439
1451 1451 1450 1450 1449 1450 1452 1446 1442 1436 1434 1433 1432 1431 1433 1433 1429 1427 1416 1407 1406 1406 1404 1407 1437 1438 1454 1457 1447 1459 1454 1453 1459 1483 1472 1464 1448 1433 1435 1436 1434 1436 1439 1445 1446
1456 1458 1460 1457 1451 1452 1453 1447 1443 1442 1433 1429 1428 1428 1430 1435 1425 1425 1414 1408 1402 1402 1400 1404 1428 1427 1424 1426 1431 1432 1437 1445 1455 1451 1452 1445 1446 1432 1431 1430 1433 1437 1439 1446 1450
1463 1463 1460 1457 1453 1452 1450 1448 1445 1442 1441 1430 1429 1423 1424 1431 1420 1417 1410 1410 1408 1402 1405 1408 1419 1419 1427 1425 1425 1429 1428 1431 1435 1435 1436 1435 1437 1421 1425 1432 1435 1430 1439 1445 1448
1468 1466 1465 1456 1454 1453 1452 1450 1445 1446 1431 1427 1423 1421 1414 1413 1408 1402 1401 1399 1400 1404 1407 1411 1418 1423 1433 1423 1427 1443 1428 1424 1425 1421 1421 1436 1416 1415 1424 1426 1431 1431 1430 1433 1442